Tracking 28915 objects as of 30-May-2024
HD Live streaming from Space Station
objects crossing your sky now

SL-8 R/B

Track SL-8 R/B now!
10-day predictions


NORAD ID: 24773
Int'l Code: 1997-017B
Perigee: 974.1 km
Apogee: 1,011.9 km
Inclination: 82.9 °
Period: 104.8 minutes
Semi major axis: 7363 km
RCS: 5.5844 m2 (large)
Launch date: April 17, 1997
Source: Commonwealth of Independent States (former USSR) (CIS)
Launch site: PLESETSK MISSILE AND SPACE COMPLEX (PKMTR)

Note: This is a ROCKET BODY
Your satellite tracking list
Your tracking list is empty




NASA's NSSDC Master Catalog

Two Line Element Set (TLE):
1 24773U 97017B   24150.94139168  .00000162  00000-0  15607-3 0  9991
2 24773  82.9200 291.5803 0025667  81.2011  38.0466 13.73828604359166
Source of the keplerian elements: AFSPC